"2010-09-23 00:00:00",184621,7.172,238,0.729,0.124,16.02,106.0929,14.87,15.79,64.94,0,110.4,13.35,15.67,200.0
"2010-09-23 00:00:30",184622,7.237,237.5,0.664,0.077,16.35,106.1124,14.92,15.81,64.41,0,110.4,13.35,15.72,199.5
"2010-09-23 00:01:00",184623,7.168,237.9,0.548,0.064,16.57,106.1282,14.96,15.84,64.17,0,110.4,13.35,15.77,199.9
"2010-09-23 00:01:30",184624,7.206,239,0.578,0.084,16.75,106.1363,14.98,15.85,64.08,0,110.4,13.35,15.79,201.0
"2010-09-23 00:02:00",184625,7.14,238,0.603,0.084,16.89,106.1613,15.05,15.88,63.93,0,110.4,13.35,15.85,200.0
"2010-09-23 00:02:30",184626,7.109,239.2,0.728,0.101,17.02,106.1659,15.06,15.89,63.92,0,110.4,13.35,15.86,201.2
"2010-09-23 00:03:00",184627,7.048,239,1.252,0.144,17.09,106.1715,15.07,15.93,63.73,0,110.4,13.36,15.88,201.0
"2010-09-23 00:03:30",184628,7.219,240.1,1.068,0.164,17.15,106.1951,15.13,15.95,62.91,0,110.4,13.36,15.94,202.1
"2010-09-23 00:04:00",184629,7.097,239.5,0.504,0.238,17.14,106.2013,15.15,15.97,62.79,0,110.4,13.36,15.95,201.5
"2010-09-23 00:04:30",184630,6.655,236.6,1.381,0.111,17.03,106.201,15.15,16.01,64.44,0,110.4,13.36,15.95,198.6
"2010-09-23 00:05:00",184631,7.004,237,1.345,0.209,17.32,106.2036,15.15,16.03,62.32,0,110.4,13.36,15.96,199.0
"2010-09-23 00:05:30",184632,6.798,236.2,0.981,0.101,17.23,106.2247,15.21,16.03,62.41,0,110.4,13.36,16.01,198.2
"2010-09-23 00:06:00",184633,6.701,234.7,0.482,0.069,17.21,106.2336,15.23,16.06,62.46,0,110.4,13.36,16.04,196.7
"2010-09-23 00:06:30",184634,6.449,230.3,2.562,0.21,17.03,106.2348,15.23,16.08,63.75,0,110.4,13.36,16.04,192.3
"2010-09-23 00:07:00",184635,6.402,225.9,3.387,0.271,16.98,106.2166,15.19,16.08,64.15,0,110.4,13.36,15.99,187.9
"2010-09-23 00:07:30",184636,6.245,226.6,1.964,0.175,16.98,106.2016,15.15,16.08,63.89,0,110.4,13.36,15.95,188.6
"2010-09-23 00:08:00",184637,6.258,222.6,2.646,0.15,16.92,106.2025,15.15,16.05,64.47,0,110.4,13.36,15.96,184.6
"2010-09-23 00:08:30",184638,6.221,217.4,6.026,0.424,16.92,106.1917,15.12,16.04,64.35,0,110.4,13.36,15.93,179.4
"2010-09-23 00:09:00",184639,7.097,219.5,7.868,1.552,18.89,106.1674,15.06,16.15,65.23,0,110.4,13.32,15.87,181.5
"2010-09-23 00:09:30",184640,6.685,211.5,6.356,1.321,18.13,106.1519,15.02,16.13,65.7,0,110.4,13.32,15.83,173.5
"2010-09-23 00:10:00",184641,7.236,216.5,7.237,1.12,17.91,106.1333,14.97,16.05,65.5,0,110.5,13.31,15.78,178.5
"2010-09-23 00:10:30",184642,7.967,228.6,7.666,1.304,19.1,106.133,14.97,16.11,64.04,0,110.4,13.31,15.78,190.6
"2010-09-23 00:11:00",184643,6.858,225.5,1.594,0.188,16.25,106.1441,15,15.92,63.05,0,110.4,13.35,15.81,187.5
"2010-09-23 00:11:30",184644,7.057,227.3,1.427,0.169,16.27,106.1658,15.06,15.93,61.8,0,110.4,13.35,15.86,189.3
"2010-09-23 00:12:00",184645,7.481,227.3,1.036,0.117,16.42,106.1784,15.09,15.96,61.13,0,110.4,13.35,15.89,189.3
"2010-09-23 00:12:30",184646,7.712,226.2,0.957,0.114,16.58,106.2007,15.15,15.98,60.81,0,110.4,13.35,15.95,188.2
"2010-09-23 00:13:00",184647,7.938,227.8,1.897,0.35,16.76,106.2098,15.17,16.02,60.97,0,110.4,13.35,15.98,189.8
"2010-09-23 00:13:30",184648,7.843,228.5,1.768,0.374,16.94,106.2312,15.23,16.04,60.47,0,110.4,13.35,16.03,190.5
"2010-09-23 00:14:00",184649,7.318,222.1,2.756,0.208,16.88,106.2369,15.24,16.07,61.5,0,110.4,13.35,16.04,184.1
"2010-09-23 00:14:30",184650,7.682,222.3,2.404,0.241,17.07,106.2363,15.24,16.07,61.05,0,110.4,13.35,16.04,184.3
"2010-09-23 00:15:00",184651,8.07,224.2,2.801,0.647,17.04,106.2348,15.23,16.08,61.47,0,110.4,13.36,16.04,186.2
"2010-09-23 00:15:30",184652,8.11,223.7,3.056,0.248,17.19,106.2366,15.24,16.11,60.93,0,110.4,13.36,16.04,185.7
"2010-09-23 00:16:00",184653,7.998,224.3,1.971,0.338,17.19,106.2394,15.25,16.12,60.84,0,110.4,13.36,16.05,186.3
"2010-09-23 00:16:30",184654,7.984,221.9,2.781,0.278,17.3,106.2557,15.29,16.14,60.77,0,110.4,13.36,16.09,183.9
"2010-09-23 00:17:00",184655,7.776,222,3.151,0.2,17.31,106.2616,15.3,16.15,61,0,110.4,13.36,16.11,184.0
"2010-09-23 00:17:30",184656,7.707,221.5,1.211,0.133,17.45,106.2678,15.32,16.18,60.84,0,110.4,13.36,16.12,183.5
"2010-09-23 00:18:00",184657,9.05,226.6,7.891,1.352,20.5,106.2705,15.33,16.36,61.34,0,110.4,13.32,16.13,188.6
"2010-09-23 00:18:30",184658,9.54,223.7,6.482,1.227,20.96,106.2574,15.29,16.42,62.25,0,110.4,13.32,16.10,185.7
"2010-09-23 00:19:00",184659,9.4,220.3,7.567,1.371,19.67,106.2372,15.24,16.45,62.29,0,110.4,13.32,16.05,182.3
"2010-09-23 00:19:30",184660,10.11,220.5,6.955,1.127,19.45,106.2358,15.24,16.34,62.26,0,110.4,13.32,16.04,182.5
"2010-09-23 00:20:00",184661,8.15,211.7,1.545,0.109,15.54,106.2182,15.19,16.12,61.99,0,110.4,13.35,16.00,173.7
"2010-09-23 00:20:30",184662,7.908,210.3,0.944,0.094,15.33,106.203,15.15,16.09,62.09,0,110.4,13.35,15.96,172.3
"2010-09-23 00:21:00",184663,7.7,211,0.622,0.081,15.65,106.2022,15.15,16.07,62.05,0,110.4,13.35,15.96,173.0
"2010-09-23 00:21:30",184664,7.707,211.1,0.827,0.116,16.2,106.2016,15.15,16.07,61.7,0,110.4,13.35,15.95,173.1
"2010-09-23 00:22:00",184665,8.04,211.4,0.646,0.145,16.64,106.2031,15.15,16.06,61.17,0,110.4,13.35,15.96,173.4
"2010-09-23 00:22:30",184666,7.858,210.9,1.375,0.203,16.86,106.2022,15.15,16.06,61.04,0,110.4,13.35,15.96,172.9
"2010-09-23 00:23:00",184667,8.25,208.2,5.571,1.358,18.48,106.2028,15.15,16.2,62.09,0,110.4,13.32,15.96,170.2
"2010-09-23 00:23:30",184668,8.38,204.7,6.602,1.175,18.09,106.1988,15.14,16.18,62.61,0,110.4,13.32,15.95,166.7
"2010-09-23 00:24:00",184669,8.63,204.4,6.518,1.058,17.76,106.1853,15.11,16.03,62.13,0,110.4,13.32,15.91,166.4
"2010-09-23 00:24:30",184670,8.44,199,0.93,0.071,16.45,106.1704,15.07,16.02,62.46,0,110.4,13.35,15.87,161.0
"2010-09-23 00:25:00",184671,8.74,199,1.149,0.157,16.41,106.1701,15.07,16,62.77,0,110.4,13.36,15.87,161.0
"2010-09-23 00:25:30",184672,9.15,198.1,0.638,0.133,16.53,106.1678,15.06,15.99,62.98,0,110.4,13.35,15.87,160.1
"2010-09-23 00:26:00",184673,9.44,198.8,1.041,0.095,16.67,106.1503,15.02,15.97,62.99,0,110.4,13.35,15.82,160.8
"2010-09-23 00:26:30",184674,9.34,197.2,1.428,0.095,16.69,106.1368,14.98,15.97,63.13,0,110.4,13.35,15.79,159.2
"2010-09-23 00:27:00",184675,9.29,198.3,1.741,0.119,16.8,106.1351,14.98,15.92,63.34,0,110.4,13.35,15.78,160.3
"2010-09-23 00:27:30",184676,9.17,201.2,1.083,0.121,17.09,106.1336,14.98,15.91,62.28,0,110.4,13.35,15.78,163.2
"2010-09-23 00:28:00",184677,8.85,199.9,1.189,0.089,17.08,106.1363,14.98,15.91,61.91,0,110.4,13.35,15.79,161.9
"2010-09-23 00:28:30",184678,8.85,200.6,0.654,0.099,17.19,106.1484,15.01,15.92,61.42,0,110.4,13.35,15.82,162.6
"2010-09-23 00:29:00",184679,8.71,201.2,0.622,0.043,17.23,106.1681,15.06,15.94,61.2,0,110.4,13.35,15.87,163.2
"2010-09-23 00:29:30",184680,8.73,200.4,0.621,0.062,17.14,106.1686,15.06,15.97,61.38,0,110.4,13.35,15.87,162.4
"2010-09-23 00:30:00",184681,9.06,199.9,1.2,0.107,17.1,106.1856,15.11,15.98,61.43,0,110.4,13.35,15.91,161.9
"2010-09-23 00:30:30",184682,9.13,198,0.503,0.075,17,106.1925,15.13,16,61.82,0,110.4,13.36,15.93,160.0
"2010-09-23 00:31:00",184683,9.07,198.3,0.596,0.068,17.16,106.1966,15.14,15.99,61.53,0,110.4,13.36,15.94,160.3
"2010-09-23 00:31:30",184684,9.07,200,1.25,0.083,17.22,106.2019,15.15,16,61.14,0,110.4,13.36,15.95,162.0
"2010-09-23 00:32:00",184685,9.03,203,0.866,0.074,17.32,106.2027,15.15,16.03,60.42,0,110.4,13.36,15.96,165.0
"2010-09-23 00:32:30",184686,8.89,203.6,0.758,0.09,17.41,106.2213,15.2,16.05,60.16,0,110.4,13.36,16.00,165.6
"2010-09-23 00:33:00",184687,8.85,202.5,1.282,0.069,17.38,106.2369,15.24,16.07,60.06,0,110.4,13.36,16.04,164.5
"2010-09-23 00:33:30",184688,8.78,201.4,0.603,0.111,17.29,106.2363,15.24,16.1,60.2,0,110.4,13.36,16.04,163.4
"2010-09-23 00:34:00",184689,8.75,202.5,0.624,0.056,17.38,106.2586,15.3,16.12,59.87,0,110.4,13.36,16.10,164.5
"2010-09-23 00:34:30",184690,8.6,203.2,0.802,0.159,17.3,106.2695,15.32,16.14,59.6,0,110.4,13.36,16.13,165.2
"2010-09-23 00:35:00",184691,8.34,202.5,1.261,0.1,17.26,106.2692,15.32,16.18,59.77,0,110.4,13.36,16.13,164.5
"2010-09-23 00:35:30",184692,8.16,200.9,0.502,0.082,17.23,106.2694,15.32,16.2,59.97,0,110.4,13.36,16.13,162.9
"2010-09-23 00:36:00",184693,8.19,201.4,0.425,0.06,17.25,106.2745,15.34,16.2,60.06,0,110.4,13.36,16.14,163.4
"2010-09-23 00:36:30",184694,8.15,203.7,0.945,0.041,17.3,106.2833,15.36,16.23,59.53,0,110.4,13.36,16.16,165.7
"2010-09-23 00:37:00",184695,8.09,204,0.425,0.056,17.25,106.3001,15.4,16.24,59.43,0,110.4,13.36,16.21,166.0
"2010-09-23 00:37:30",184696,7.903,203.9,0.278,0.119,17.2,106.2992,15.4,16.27,59.39,0,110.4,13.36,16.21,165.9
"2010-09-23 00:38:00",184697,7.763,203.5,0.513,0.044,17.18,106.3001,15.4,16.27,59.62,0,110.4,13.36,16.21,165.5
"2010-09-23 00:38:30",184698,8.1,203,0.424,0.082,17.3,106.3055,15.42,16.29,59.38,0,110.4,13.36,16.22,165.0
"2010-09-23 00:39:00",184699,7.906,203.6,0.713,0.2,17.25,106.326,15.47,16.31,59.15,0,110.4,13.36,16.27,165.6
"2010-09-23 00:39:30",184700,7.448,203.7,0.532,0.109,17.11,106.3286,15.47,16.31,59.77,0,110.4,13.36,16.28,165.7
"2010-09-23 00:40:00",184701,7.925,202.5,0.471,0.132,17.23,106.3228,15.46,16.32,59.31,0,110.4,13.36,16.27,164.5
"2010-09-23 00:40:30",184702,7.921,201.7,0.028,0.035,17.13,106.3294,15.48,16.33,59.38,0,110.4,13.36,16.28,163.7
"2010-09-23 00:41:00",184703,8.12,202.7,0.815,0.146,17.36,106.331,15.48,16.33,59.08,0,110.4,13.36,16.29,164.7
"2010-09-23 00:41:30",184704,8.13,203.9,0.755,0.077,17.37,106.3294,15.48,16.35,58.7,0,110.4,13.36,16.28,165.9
"2010-09-23 00:42:00",184705,7.937,204.2,0.875,0.108,17.33,106.3294,15.48,16.37,58.45,0,110.4,13.35,16.28,166.2
"2010-09-23 00:42:30",184706,7.84,205.3,0.495,0.061,17.38,106.3373,15.5,16.37,58.22,0,110.4,13.35,16.30,167.3
"2010-09-23 00:43:00",184707,7.871,205.9,0.577,0.063,17.27,106.3601,15.56,16.4,58.41,0,110.4,13.35,16.36,167.9
"2010-09-23 00:43:30",184708,8.06,207.2,0.258,0.065,17.24,106.3623,15.56,16.41,58.27,0,110.4,13.35,16.37,169.2
"2010-09-23 00:44:00",184709,8.08,207.2,0.35,0.067,17.23,106.362,15.56,16.43,58.23,0,110.4,13.35,16.37,169.2
"2010-09-23 00:44:30",184710,8.23,206.6,0.527,0.074,17.23,106.3614,15.56,16.43,58.63,0,110.4,13.35,16.36,168.6
"2010-09-23 00:45:00",184711,8.36,206,0.75,0.067,17.26,106.3605,15.56,16.42,58.91,0,110.4,13.35,16.36,168.0
"2010-09-23 00:45:30",184712,8.58,203.7,0.845,0.113,17.14,106.3425,15.51,16.44,59.66,0,110.4,13.35,16.32,165.7
"2010-09-23 00:46:00",184713,8.77,200.9,1.191,0.093,17,106.3264,15.47,16.41,60.4,0,110.4,13.35,16.28,162.9
"2010-09-23 00:46:30",184714,8.81,201,0.794,0.067,17.13,106.3117,15.43,16.37,60.47,0,110.4,13.35,16.24,163.0
"2010-09-23 00:47:00",184715,8.79,201.1,0.968,0.082,17.33,106.2923,15.38,16.34,59.9,0,110.4,13.35,16.19,163.1
"2010-09-23 00:47:30",184716,8.7,201.4,0.42,0.076,17.41,106.2923,15.38,16.33,59.41,0,110.4,13.35,16.19,163.4
"2010-09-23 00:48:00",184717,8.56,200.2,1.298,0.086,17.37,106.2923,15.38,16.32,59.05,0,110.4,13.36,16.19,162.2
"2010-09-23 00:48:30",184718,8.5,197.8,0.767,0.063,17.3,106.2974,15.39,16.33,59.24,0,110.4,13.36,16.20,159.8
"2010-09-23 00:49:00",184719,8.53,196.1,0.622,0.057,17.26,106.2962,15.39,16.34,59.54,0,110.4,13.36,16.20,158.1
"2010-09-23 00:49:30",184720,8.45,196.5,0.706,0.068,17.2,106.2929,15.38,16.34,59.78,0,110.4,13.36,16.19,158.5
"2010-09-23 00:50:00",184721,8.64,193.6,1.075,0.103,17.28,106.2923,15.38,16.31,59.99,0,110.4,13.36,16.19,155.6
"2010-09-23 00:50:30",184722,8.6,192.9,0.33,0.08,17.35,106.2923,15.38,16.3,59.9,0,110.4,13.36,16.19,154.9
"2010-09-23 00:51:00",184723,8.45,192.1,0.482,0.061,17.3,106.2923,15.38,16.29,59.77,0,110.4,13.36,16.19,154.1
"2010-09-23 00:51:30",184724,8.44,190.6,0.474,0.045,17.28,106.2923,15.38,16.3,59.91,0,110.4,13.36,16.19,152.6
"2010-09-23 00:52:00",184725,8.6,189.8,0.028,0.105,17.37,106.2923,15.38,16.3,60.07,0,110.4,13.36,16.19,151.8
"2010-09-23 00:52:30",184726,8.73,189.8,0.382,0.051,17.39,106.2923,15.38,16.29,60.06,0,110.4,13.36,16.19,151.8
"2010-09-23 00:53:00",184727,8.63,188.3,0.437,0.064,17.29,106.2895,15.37,16.28,60.35,0,110.4,13.36,16.18,150.3
"2010-09-23 00:53:30",184728,8.51,187.2,0.472,0.053,17.2,106.2706,15.33,16.26,60.65,0,110.4,13.36,16.13,149.2
"2010-09-23 00:54:00",184729,8.31,186.1,0.425,0.099,17.17,106.2593,15.3,16.25,61.06,0,110.4,13.36,16.10,148.1
"2010-09-23 00:54:30",184730,8.15,185.3,0.588,0.062,17.1,106.2585,15.29,16.25,61.41,0,110.4,13.36,16.10,147.3
"2010-09-23 00:55:00",184731,8.2,185.9,0.786,0.05,17.17,106.2514,15.28,16.2,61.49,0,110.5,13.36,16.08,147.9
"2010-09-23 00:55:30",184732,8.15,187.3,0.525,0.057,17.19,106.2269,15.21,16.18,61.58,0,110.5,13.36,16.02,149.3
"2010-09-23 00:56:00",184733,7.891,187.5,0.531,0.111,17.19,106.2246,15.21,16.17,62,0,110.5,13.36,16.01,149.5
"2010-09-23 00:56:30",184734,7.589,187.2,0.474,0.069,17.07,106.2235,15.21,16.15,62.69,0,110.5,13.36,16.01,149.2
"2010-09-23 00:57:00",184735,7.732,187,0.365,0.078,17.11,106.1962,15.14,16.12,63.49,0,110.5,13.36,15.94,149.0
"2010-09-23 00:57:30",184736,7.718,187.9,0.325,0.062,17.1,106.1899,15.12,16.08,64.63,0,110.5,13.36,15.92,149.9
"2010-09-23 00:58:00",184737,7.748,188.9,0.56,0.048,17.14,106.1643,15.05,16.05,64.54,0,110.5,13.36,15.86,150.9
"2010-09-23 00:58:30",184738,7.812,189.8,0.315,0.026,17.18,106.157,15.03,16.02,65.03,0,110.5,13.35,15.84,151.8
"2010-09-23 00:59:00",184739,7.877,190.4,0.491,0.031,17.15,106.1553,15.03,16,65.28,0,110.5,13.35,15.84,152.4
"2010-09-23 00:59:30",184740,8.08,190.5,0.477,0.123,17.01,106.133,14.97,15.97,65.52,0,110.5,13.35,15.78,152.5
"2010-09-23 01:00:00",184741,8.19,190.5,0.68,0.076,16.96,106.1231,14.95,15.93,65.93,0,110.5,13.35,15.75,152.5
"2010-09-23 01:00:30",184742,8.06,188.8,0.399,0.06,16.99,106.102,14.89,15.89,66.42,0,110.5,13.35,15.70,150.8
"2010-09-23 01:01:00",184743,8.07,188.1,0.773,0.072,17.06,106.0893,14.86,15.86,66.51,0,110.5,13.35,15.67,150.1
"2010-09-23 01:01:30",184744,8.1,187.9,0.395,0.071,17.08,106.0856,14.85,15.83,66.6,0,110.5,13.35,15.66,149.9
"2010-09-23 01:02:00",184745,8.21,186.6,1.179,0.117,17.07,106.0594,14.79,15.8,66.88,0,110.5,13.35,15.59,148.6
"2010-09-23 01:02:30",184746,8.32,184.5,1.319,0.167,17.03,106.0555,14.77,15.77,67.09,0,110.5,13.35,15.58,146.5
"2010-09-23 01:03:00",184747,8.47,183.1,1.291,0.285,17,106.0555,14.77,15.75,67.39,0,110.5,13.35,15.58,145.1
"2010-09-23 01:03:30",184748,8.14,185.2,1.502,0.255,17.06,106.0555,14.77,15.72,67.42,0,110.5,13.35,15.58,147.2
"2010-09-23 01:04:00",184749,7.958,184.5,1.452,0.198,17,106.0515,14.76,15.72,67.65,0,110.5,13.35,15.57,146.5
"2010-09-23 01:04:30",184750,8.01,184,1.002,0.239,16.97,106.0363,14.73,15.69,68.06,0,110.5,13.35,15.53,146.0
"2010-09-23 01:05:00",184751,7.797,187.6,0.945,0.155,17.13,106.0233,14.69,15.69,67.71,0,110.5,13.36,15.50,149.6
"2010-09-23 01:05:30",184752,7.682,186.3,1.622,0.103,17.03,106.0247,14.7,15.67,67.93,0,110.5,13.36,15.50,148.3
"2010-09-23 01:06:00",184753,8.05,183.5,0.911,0.127,16.92,106.0216,14.69,15.66,68.47,0,110.5,13.36,15.49,145.5
"2010-09-23 01:06:30",184754,8.43,180.9,0.575,0.111,16.82,106.0216,14.69,15.65,69.18,0,110.5,13.36,15.49,142.9
"2010-09-23 01:07:00",184755,8.55,180.8,0.509,0.067,16.84,106.0166,14.68,15.62,69.51,0,110.5,13.36,15.48,142.8
"2010-09-23 01:07:30",184756,9.7,185,6.785,1.357,18.77,105.9929,14.61,15.72,69.9,0,110.5,13.32,15.42,147.0
"2010-09-23 01:08:00",184757,9.21,181.1,5.435,0.972,17.48,105.9878,14.6,15.71,70.18,0,110.5,13.32,15.40,143.1
"2010-09-23 01:08:30",184758,10.17,183.9,6.379,1.329,18.39,105.987,14.6,15.63,70.22,0,110.4,13.32,15.40,145.9
"2010-09-23 01:09:00",184759,9.07,176.4,2.474,0.47,16.38,105.9658,14.55,15.67,70.44,0,110.5,13.32,15.35,138.4
"2010-09-23 01:09:30",184760,9.75,178.1,7.057,1.257,17.45,105.9543,14.52,15.63,70.49,0,110.5,13.32,15.32,140.1
"2010-09-23 01:10:00",184761,10.03,179.8,6.903,1.407,17.93,105.954,14.51,15.56,70.36,0,110.5,13.32,15.32,141.8
"2010-09-23 01:10:30",184762,8.86,174.7,0.551,0.087,15.7,105.9534,14.51,15.54,70.21,0,110.5,13.35,15.32,136.7
"2010-09-23 01:11:00",184763,8.9,174.9,1.309,0.182,15.71,105.9478,14.5,15.46,70.12,0,110.5,13.35,15.30,136.9
"2010-09-23 01:11:30",184764,8.78,175.3,0.909,0.119,15.85,105.9461,14.49,15.45,70.18,0,110.5,13.35,15.30,137.3
"2010-09-23 01:12:00",184765,9.05,175.4,1.525,0.259,16.09,105.9469,14.5,15.46,70.43,0,110.5,13.35,15.30,137.4
"2010-09-23 01:12:30",184766,8.89,174.9,1.502,0.184,16.34,105.9481,14.5,15.44,70.3,0,110.5,13.36,15.30,136.9
"2010-09-23 01:13:00",184767,9.05,174.9,1.392,0.194,16.51,105.952,14.51,15.44,70.46,0,110.5,13.36,15.31,136.9
"2010-09-23 01:13:30",184768,8.9,174.2,1.299,0.139,16.65,105.9537,14.51,15.42,70.24,0,110.5,13.36,15.32,136.2
"2010-09-23 01:14:00",184769,9.07,174,1.049,0.131,16.76,105.954,14.51,15.43,70.03,0,110.5,13.36,15.32,136.0
"2010-09-23 01:14:30",184770,9.02,175.4,1.695,0.241,16.82,105.954,14.51,15.44,70.02,0,110.5,13.36,15.32,137.4
"2010-09-23 01:15:00",184771,8.63,178.9,3.058,0.164,16.88,105.954,14.51,15.44,70.01,0,110.5,13.36,15.32,140.9
"2010-09-23 01:15:30",184772,8.35,180.2,2.914,0.338,16.96,105.9568,14.52,15.46,69.59,0,110.4,13.35,15.32,142.2
"2010-09-23 01:16:00",184773,8.48,176.7,2.185,0.299,17.04,105.983,14.59,15.45,69.09,0,110.5,13.35,15.39,138.7
"2010-09-23 01:16:30",184774,8.55,180.1,3.104,0.284,17.06,105.9878,14.6,15.48,68.94,0,110.5,13.35,15.40,142.1
"2010-09-23 01:17:00",184775,8.43,181.5,4.838,0.315,16.98,105.9887,14.6,15.51,69.47,0,110.5,13.35,15.41,143.5
"2010-09-23 01:17:30",184776,8.34,179.8,2.152,0.374,17.11,105.9997,14.63,15.51,68.9,0,110.5,13.35,15.44,141.8
"2010-09-23 01:18:00",184777,8.66,179.9,1.566,0.247,17.02,106.02,14.68,15.52,68.54,0,110.4,13.35,15.49,141.9
"2010-09-23 01:18:30",184778,8.42,181.6,3.743,0.369,17.02,106.0216,14.69,15.56,69.46,0,110.4,13.35,15.49,143.6
"2010-09-23 01:19:00",184779,8.53,179.8,1.449,0.135,17.07,106.0216,14.69,15.55,68.84,0,110.4,13.35,15.49,141.8
"2010-09-23 01:19:30",184780,8.5,175.3,1.133,0.204,16.83,106.0216,14.69,15.58,69.29,0,110.4,13.35,15.49,137.3
"2010-09-23 01:20:00",184781,8.47,175.2,1.391,0.253,16.83,106.0216,14.69,15.58,70.24,0,110.4,13.35,15.49,137.2
"2010-09-23 01:20:30",184782,8.56,175.8,1.955,0.231,16.89,106.0098,14.66,15.57,69.76,0,110.4,13.35,15.46,137.8
"2010-09-23 01:21:00",184783,8.73,177.2,1.18,0.182,16.93,105.9909,14.61,15.54,69.5,0,110.4,13.36,15.41,139.2
"2010-09-23 01:21:30",184784,8.55,177.7,1.281,0.126,16.96,105.9889,14.6,15.53,69.37,0,110.5,13.36,15.41,139.7
"2010-09-23 01:22:00",184785,8.69,179.2,1.45,0.106,17,105.9881,14.6,15.53,69.41,0,110.4,13.36,15.41,141.2
"2010-09-23 01:22:30",184786,8.73,178.1,1.992,0.276,16.97,105.9884,14.6,15.53,69.42,0,110.4,13.36,15.41,140.1
"2010-09-23 01:23:00",184787,8.41,179.8,1.044,0.283,16.92,105.9878,14.6,15.53,69.94,0,110.4,13.36,15.40,141.8
"2010-09-23 01:23:30",184788,8.3,180.4,1.224,0.163,17.01,105.9878,14.6,15.53,69.59,0,110.4,13.36,15.40,142.4
"2010-09-23 01:24:00",184789,8.16,181.2,1.42,0.232,17.16,105.9977,14.63,15.54,68.56,0,110.4,13.36,15.43,143.2
"2010-09-23 01:24:30",184790,8.18,179,0.897,0.093,17.02,106.0208,14.69,15.55,68.65,0,110.4,13.36,15.49,141.0
"2010-09-23 01:25:00",184791,8.1,178.4,1.121,0.106,17.09,106.0216,14.69,15.57,68.59,0,110.4,13.36,15.49,140.4
"2010-09-23 01:25:30",184792,8.27,180.2,0.809,0.107,17.22,106.0281,14.7,15.59,68.17,0,110.4,13.36,15.51,142.2
"2010-09-23 01:26:00",184793,8.5,181,0.61,0.073,17.32,106.0555,14.77,15.6,67.72,0,110.4,13.36,15.58,143.0
"2010-09-23 01:26:30",184794,8.4,179.9,0.788,0.064,17.27,106.0744,14.82,15.64,67.59,0,110.4,13.36,15.63,141.9
"2010-09-23 01:27:00",184795,8.27,178.9,1.757,0.254,17.18,106.0893,14.86,15.68,67.64,0,110.4,13.36,15.67,140.9
"2010-09-23 01:27:30",184796,8.78,183.3,0.751,0.08,17.34,106.1026,14.9,15.72,67,0,110.4,13.36,15.70,145.3
"2010-09-23 01:28:00",184797,8.51,183.5,1.534,0.092,17.29,106.1231,14.95,15.75,66.97,0,110.4,13.36,15.75,145.5
"2010-09-23 01:28:30",184798,8.48,182.7,0.813,0.17,17.2,106.1313,14.97,15.79,66.95,0,110.4,13.36,15.77,144.7
"2010-09-23 01:29:00",184799,8.35,181.3,0.978,0.098,17.03,106.1406,14.99,15.82,67.26,0,110.4,13.36,15.80,143.3
"2010-09-23 01:29:30",184800,8.59,183.1,1.15,0.072,17.24,106.1389,14.99,15.82,67.02,0,110.5,13.36,15.79,145.1
"2010-09-23 01:30:00",184801,8.56,185.2,0.579,0.049,17.32,106.1468,15.01,15.84,66.73,0,110.4,13.36,15.81,147.2
"2010-09-23 01:30:30",184802,8.61,184.6,0.729,0.064,17.24,106.157,15.03,15.86,66.8,0,110.4,13.36,15.84,146.6
"2010-09-23 01:31:00",184803,8.92,187,1.054,0.104,17.34,106.157,15.03,15.87,66.64,0,110.5,13.36,15.84,149.0
"2010-09-23 01:31:30",184804,8.93,187.5,0.571,0.114,17.3,106.157,15.03,15.88,66.58,0,110.4,13.36,15.84,149.5
"2010-09-23 01:32:00",184805,8.95,186.4,1.164,0.131,17.25,106.157,15.03,15.89,66.59,0,110.4,13.36,15.84,148.4
"2010-09-23 01:32:30",184806,9.09,185.5,1.415,0.238,17.21,106.157,15.03,15.91,66.71,0,110.4,13.35,15.84,147.5
"2010-09-23 01:33:00",184807,9.27,186.1,2.094,0.289,17.23,106.157,15.03,15.9,66.76,0,110.5,13.35,15.84,148.1
"2010-09-23 01:33:30",184808,9.32,186.4,1.902,0.242,17.23,106.157,15.03,15.9,67.07,0,110.4,13.35,15.84,148.4
"2010-09-23 01:34:00",184809,9.38,189.4,1.402,0.146,17.41,106.157,15.03,15.92,66.56,0,110.4,13.35,15.84,151.4
"2010-09-23 01:34:30",184810,9.37,188.6,2.068,0.187,17.26,106.157,15.03,15.91,66.85,0,110.5,13.35,15.84,150.6
"2010-09-23 01:35:00",184811,9.26,187.7,1.35,0.12,17.29,106.157,15.03,15.91,67.25,0,110.4,13.35,15.84,149.7
"2010-09-23 01:35:30",184812,8.91,188.2,0.733,0.139,17.27,106.157,15.03,15.91,67.35,0,110.5,13.35,15.84,150.2
"2010-09-23 01:36:00",184813,9.12,190.8,1.637,0.13,17.3,106.1564,15.03,15.92,66.94,0,110.5,13.35,15.84,152.8
"2010-09-23 01:36:30",184814,9.13,192.4,1.627,0.237,17.26,106.1558,15.03,15.92,66.99,0,110.5,13.35,15.84,154.4
"2010-09-23 01:37:00",184815,8.75,192.3,1.5,0.139,17.24,106.1525,15.02,15.92,67.02,0,110.4,13.36,15.83,154.3
"2010-09-23 01:37:30",184816,8.81,195.1,1.043,0.096,17.27,106.1533,15.03,15.9,66.63,0,110.5,13.36,15.83,157.1
"2010-09-23 01:38:00",184817,8.8,196.4,1.133,0.174,17.25,106.157,15.03,15.92,66.46,0,110.5,13.36,15.84,158.4
"2010-09-23 01:38:30",184818,8.81,197.7,1.079,0.171,17.29,106.157,15.03,15.92,66.28,0,110.5,13.36,15.84,159.7
"2010-09-23 01:39:00",184819,8.79,199.4,0.979,0.137,17.27,106.157,15.03,15.93,66.22,0,110.5,13.36,15.84,161.4
"2010-09-23 01:39:30",184820,8.7,199.7,0.911,0.108,17.15,106.157,15.03,15.94,66.32,0,110.5,13.36,15.84,161.7
"2010-09-23 01:40:00",184821,8.7,200.3,0.949,0.15,17.15,106.157,15.03,15.94,66.41,0,110.5,13.36,15.84,162.3
"2010-09-23 01:40:30",184822,8.78,202.4,1.107,0.142,17.16,106.157,15.03,15.94,66.3,0,110.5,13.36,15.84,164.4
"2010-09-23 01:41:00",184823,8.62,202,1.16,0.194,17.19,106.157,15.03,15.95,66.18,0,110.5,13.36,15.84,164.0
"2010-09-23 01:41:30",184824,8.24,199.5,1.086,0.131,17.17,106.157,15.03,15.94,66.39,0,110.5,13.36,15.84,161.5
"2010-09-23 01:42:00",184825,8.38,198.3,0.971,0.117,17.21,106.157,15.03,15.94,66.48,0,110.5,13.36,15.84,160.3
"2010-09-23 01:42:30",184826,8.59,199.2,0.666,0.088,17.12,106.157,15.03,15.95,66.32,0,110.5,13.36,15.84,161.2
"2010-09-23 01:43:00",184827,8.63,199.8,1.191,0.065,17.11,106.157,15.03,15.95,66.29,0,110.5,13.36,15.84,161.8
"2010-09-23 01:43:30",184828,8.78,202.5,0.688,0.09,17.17,106.157,15.03,15.94,65.89,0,110.5,13.36,15.84,164.5
"2010-09-23 01:44:00",184829,9.24,204.2,0.504,0.122,17.28,106.1575,15.04,15.97,65.41,0,110.5,13.36,15.84,166.2
"2010-09-23 01:44:30",184830,9.36,203.9,0.189,0.033,17.25,106.1702,15.07,15.97,65.06,0,110.5,13.36,15.87,165.9
"2010-09-23 01:45:00",184831,9.34,203.9,0.046,0.047,17.24,106.1877,15.11,15.98,64.94,0,110.5,13.36,15.92,165.9
"2010-09-23 01:45:30",184832,9.27,203.9,0.046,0.038,17.29,106.1908,15.12,15.99,65.16,0,110.5,13.36,15.93,165.9
"2010-09-23 01:46:00",184833,9.11,203.8,0.824,0.116,17.19,106.1908,15.12,15.99,65.46,0,110.5,13.36,15.93,165.8
"2010-09-23 01:46:30",184834,9.04,203.2,0.755,0.067,17.14,106.1908,15.12,16.01,65.9,0,110.5,13.36,15.93,165.2
"2010-09-23 01:47:00",184835,9.09,204.5,0.529,0.085,17.19,106.1908,15.12,16,65.84,0,110.5,13.36,15.93,166.5
"2010-09-23 01:47:30",184836,9.22,204.6,0.49,0.051,17.28,106.1874,15.11,16,65.81,0,110.5,13.36,15.92,166.6
"2010-09-23 01:48:00",184837,9.12,203.7,0.43,0.06,17.2,106.1821,15.1,15.98,66.09,0,110.5,13.36,15.90,165.7
"2010-09-23 01:48:30",184838,9.21,203.3,0.53,0.057,17.27,106.1699,15.07,15.99,65.87,0,110.5,13.36,15.87,165.3